Regional Weather Roundup
Issued by NWS

Home | Current Version | Previous Version | Graphics & Text | Print | Product List | Glossary On
Versions: 1 2 3 4 5 6 7 8 9 10 11 12 13 14 15 16 17 18 19 20 21 22 23 24 25 26 27 28 29 30 31 32 33 34 35 36 37 38 39 40 41 42 43 44 45 46 47 48 49 50
000
ASUS45 KBOU 290507
RWRCO

WEATHER ROUNDUP FOR COLORADO
NATIONAL WEATHER SERVICE DENVER/BOULDER CO
1000 PM MST FRI NOV 28 2014

NOTE: "FAIR" INDICATES FEW OR NO CLOUDS BELOW 12000 FEET WITH NO
SIGNIFICANT WEATHER AND/OR OBSTRUCTIONS TO VISIBILITY.

COZ001>005-013-030-031-290600-
...NORTHWEST COLORADO...

CITY           SKY/WX    TMP DP  RH WIND       PRES   REMARKS
CRAIG          CLEAR     30  20  66 VRB3      29.92F
HAYDEN         CLEAR     32  18  55 E12       29.92F WCI  23
MEEKER         PTCLDY    41  20  43 W9        29.95F
MOUNT WERNER   NOT AVBL
STEAMBOAT SPGS CLEAR     26  21  81 CALM      29.95F
WALDEN         CLEAR     32  14  47 SE7       29.94F WCI  26
$$

COZ006>008-011-290600-
...WEST CENTRAL VALLEYS...

CITY           SKY/WX    TMP DP  RH WIND       PRES   REMARKS
GRAND JUNCTION CLEAR     35  24  64 E6        29.98S WCI  30
MONTROSE       CLEAR     28  20  71 SE9       30.02F WCI  19
EAGLE          CLEAR     30  25  80 E7        30.03F WCI  23
RIFLE          CLEAR     32  24  72 E3        30.01S
DELTA          CLEAR     33  21  62 CALM      30.01S
NUCLA          CLEAR     36  14  41 E6        30.07R
$$

COZ017>023-064>068-290600-
...SOUTHWEST COLORADO...

CITY           SKY/WX    TMP DP  RH WIND       PRES   REMARKS
DURANGO        PTCLDY    29  16  58 N3        30.10F
CORTEZ         CLEAR     24  15  68 E6        30.06F WCI  17
PAGOSA SPRINGS PTCLDY    28  13  52 CALM      30.14F
TELLURIDE      PTCLDY    36   8  30 SE5       30.18S
WOLF CREEK PAS PTCLDY    28   5  37 MISG      30.24S
$$

COZ009-010-012-014-032>034-037-058>063-290600-
...CENTRAL COLORADO...

CITY           SKY/WX    TMP DP  RH WIND       PRES   REMARKS
ASPEN          CLEAR     30  14  51 SW5       30.04S WCI  25
BUENA VISTA    PTCLDY    44   4  19 W7        30.01S
COPPER MTN     PTCLDY    34   0  23 SW15G29   30.15F WCI  24
BERTHOUD PASS  NOT AVBL
COTTONWOOD PAS PTCLDY    43  -6  13 W22G41    30.05F
GUNNISON       PTCLDY    18  10  73 CALM      30.14S
KREMMLING      CLEAR     37  14  38 W15       29.97F
LEADVILLE      CLEAR     26   4  38 NE9       30.08F WCI  17
MONARCH PASS   PTCLDY    28   3  34 W33G41    30.27F WCI  12
SALIDA         PTCLDY    47   7  19 SW9       30.09S
SUNLIGHT       CLEAR     32  16  51 CALM      30.12S
WILKERSON PASS PTCLDY    32  -2  23 SW15G31   30.09S WCI  22
$$

COZ069>075-290600-
...SAN LUIS VALLEY/SANGRE DE CRISTO MOUNTAINS...

CITY           SKY/WX    TMP DP  RH WIND       PRES   REMARKS
ALAMOSA        PTCLDY    33   7  33 SW6       30.07F WCI  28
LA VETA PASS   NOT AVBL
SAGUACHE       PTCLDY    27  12  54 NW3       30.09S
$$

COZ035-036-038>040-290600-
...NORTHERN COLORADO FRONT RANGE...

CITY           SKY/WX    TMP DP  RH WIND       PRES   REMARKS
DENVER INTL AP CLOUDY    59   9  13 W23G32    29.78F
DMNS CITY PARK   N/A     51  10  19 E7        29.79S
AURORA         MOCLDY    46  14  26 S9        29.83S
FRONT RANGE AP CLOUDY    48  19  32 SW8       29.82S
ERIE MUNI ARPT MOCLDY    49  11  22 CALM      29.78S
BOULDER MUN AP MOCLDY    63  10  13 SW8       29.77F
CENTENNIAL     MOCLDY    49   9  19 S6        29.83S
BROOMFIELD     MOCLDY    57   9  14 W16       29.81F
FORT COLLINS   CLOUDY    59  14  17 SW14      29.78F
LONGMONT       CLOUDY    62   9  12 NW14G21   29.79S
$$

COZ041-046-047-076>085-087-088-290600-
...PIKES PEAK/PALMER DIVIDE AND SOUTHERN FOOTHILLS...

CITY           SKY/WX    TMP DP  RH WIND       PRES   REMARKS
COLO. SPRINGS  PTCLDY    48   4  16 N8        29.87S
A. F. ACADEMY  PTCLDY    49   5  16 NE9       29.89S
ELLICOTT       NOT AVBL
FALCON         NOT AVBL
FORT CARSON    PTCLDY    48   8  19 NW8       29.84S
LIMON          CLOUDY    38  14  37 NW8       29.81S
MONUMENT HILL  MOCLDY    43   7  22 W13       29.89S
TRINIDAD       CLOUDY    46  17  31 W10       29.88F
$$

COZ042>045-048>051-090-091-290600-
...NORTHEAST COLORADO...

CITY           SKY/WX    TMP DP  RH WIND       PRES   REMARKS
GREELEY ARPT   CLOUDY    37  19  48 CALM      29.77F
AKRON          CLOUDY    45  18  34 N7        29.75F
BURLINGTON     CLOUDY    45  14  28 SW8       29.73F
WRAY           CLOUDY    38  22  52 W6        29.72F
STERLING       CLOUDY    36  30  80 SW5       29.73F
HOLYOKE        CLOUDY    37  25  60 W10       29.71F
FORT MORGAN    CLOUDY    49  17  28 NW9       29.76F
$$

COZ086-089-092>099-290600-
...SOUTHEAST COLORADO...

CITY           SKY/WX    TMP DP  RH WIND       PRES   REMARKS
PUEBLO         PTCLDY    39  15  37 NW7       29.81F
LA JUNTA       CLOUDY    54  17  23 SW17      29.78F
LAMAR          CLOUDY    38  20  48 SW6       29.75F
SPRINGFIELD      N/A     53  10  18 W14       29.79S
$$



USA.gov is the U.S. government's official web portal to all federal, state and local government web resources and services.